TimeCDT,TemperatureF,Dew PointF,Humidity,Sea Level PressureIn,VisibilityMPH,Wind Direction,Wind SpeedMPH,Gust SpeedMPH,PrecipitationIn,Events,Conditions,WindDirDegrees,DateUTC
12:15 AM,73.4,64.9,75,29.89,10.0,East,11.5,16.1,N/A,,Overcast,100,2013-08-31 05:15:00
12:35 AM,72.5,63.9,74,29.88,10.0,East,13.8,-,N/A,,Overcast,80,2013-08-31 05:35:00
12:55 AM,71.6,63.3,75,29.88,10.0,ENE,8.1,-,N/A,,Overcast,70,2013-08-31 05:55:00
1:15 AM,71.1,62.6,75,29.88,10.0,East,8.1,-,N/A,,Overcast,80,2013-08-31 06:15:00
1:35 AM,70.2,62.2,76,29.88,10.0,ENE,5.8,-,N/A,,Overcast,70,2013-08-31 06:35:00
1:55 AM,69.4,61.9,77,29.88,10.0,East,6.9,-,N/A,,Overcast,80,2013-08-31 06:55:00
2:15 AM,69.8,61.9,76,29.88,10.0,East,5.8,-,N/A,,Overcast,80,2013-08-31 07:15:00
2:35 AM,70.0,61.3,74,29.89,10.0,East,8.1,-,N/A,,Overcast,80,2013-08-31 07:35:00
2:55 AM,70.0,61.7,75,29.89,10.0,East,5.8,-,N/A,,Overcast,100,2013-08-31 07:55:00
3:15 AM,70.0,60.8,73,29.90,10.0,East,5.8,-,N/A,,Overcast,90,2013-08-31 08:15:00
3:35 AM,69.8,61.2,74,29.89,10.0,East,4.6,-,N/A,,Overcast,90,2013-08-31 08:35:00
3:55 AM,68.9,61.7,78,29.90,10.0,Calm,Calm,-,N/A,,Overcast,0,2013-08-31 08:55:00
4:15 AM,67.6,63.0,85,29.88,10.0,ENE,8.1,-,N/A,,Mostly Cloudy,70,2013-08-31 09:15:00
4:35 AM,68.0,61.7,80,29.87,10.0,ENE,5.8,-,N/A,,Overcast,70,2013-08-31 09:35:00
4:55 AM,67.1,61.7,83,29.88,10.0,East,4.6,-,N/A,,Scattered Clouds,100,2013-08-31 09:55:00
5:15 AM,66.2,61.2,84,29.88,10.0,ENE,4.6,-,N/A,,Clear,70,2013-08-31 10:15:00
5:35 AM,65.5,61.9,88,29.86,10.0,NE,6.9,-,N/A,,Clear,50,2013-08-31 10:35:00
5:55 AM,66.4,62.1,86,29.85,10.0,NE,8.1,16.1,N/A,,Clear,50,2013-08-31 10:55:00
6:15 AM,66.2,62.1,86,29.87,10.0,ENE,3.5,-,N/A,,Scattered Clouds,70,2013-08-31 11:15:00
6:35 AM,65.7,62.2,89,29.88,10.0,Calm,Calm,-,N/A,,Mostly Cloudy,0,2013-08-31 11:35:00
6:55 AM,66.6,63.0,88,29.89,10.0,Calm,Calm,-,N/A,,Overcast,0,2013-08-31 11:55:00
7:15 AM,67.3,63.1,87,29.90,10.0,ENE,3.5,-,N/A,,Overcast,70,2013-08-31 12:15:00
7:35 AM,67.6,63.5,87,29.89,10.0,Calm,Calm,-,N/A,,Overcast,0,2013-08-31 12:35:00
7:55 AM,68.2,63.3,84,29.89,10.0,East,4.6,-,N/A,,Overcast,90,2013-08-31 12:55:00
8:15 AM,68.7,62.6,81,29.90,10.0,Calm,Calm,-,N/A,,Overcast,0,2013-08-31 13:15:00
8:35 AM,68.4,63.0,83,29.90,10.0,East,4.6,-,N/A,,Overcast,100,2013-08-31 13:35:00
8:55 AM,68.9,63.0,81,29.89,10.0,ENE,4.6,-,N/A,,Overcast,60,2013-08-31 13:55:00
9:15 AM,69.1,62.8,80,29.89,10.0,ENE,3.5,-,N/A,,Overcast,70,2013-08-31 14:15:00
9:35 AM,70.2,63.0,78,29.88,10.0,East,5.8,-,N/A,,Overcast,80,2013-08-31 14:35:00
9:55 AM,71.4,63.7,76,29.89,10.0,NE,5.8,-,N/A,,Overcast,50,2013-08-31 14:55:00
10:15 AM,71.2,63.3,76,29.89,10.0,Calm,Calm,-,N/A,,Overcast,0,2013-08-31 15:15:00
10:35 AM,73.0,63.9,73,29.88,10.0,East,3.5,-,N/A,,Overcast,90,2013-08-31 15:35:00
10:55 AM,74.1,63.9,70,29.89,10.0,Calm,Calm,-,N/A,,Scattered Clouds,0,2013-08-31 15:55:00
11:15 AM,75.4,63.9,67,29.89,10.0,Calm,Calm,-,N/A,,Mostly Cloudy,0,2013-08-31 16:15:00
11:35 AM,75.4,63.3,66,29.88,10.0,Calm,Calm,-,N/A,,Mostly Cloudy,0,2013-08-31 16:35:00
11:55 AM,76.8,64.8,66,29.88,10.0,NE,4.6,-,N/A,,Mostly Cloudy,50,2013-08-31 16:55:00
12:15 PM,77.4,63.9,63,29.87,10.0,ENE,4.6,-,N/A,,Scattered Clouds,70,2013-08-31 17:15:00
12:35 PM,78.1,64.9,64,29.86,10.0,North,5.8,-,N/A,,Mostly Cloudy,10,2013-08-31 17:35:00
12:55 PM,79.2,63.9,59,29.86,10.0,Calm,Calm,-,N/A,,Overcast,0,2013-08-31 17:55:00
1:15 PM,79.3,64.8,61,29.87,10.0,ENE,4.6,-,N/A,,Mostly Cloudy,60,2013-08-31 18:15:00
1:35 PM,78.6,64.9,63,29.87,10.0,SE,6.9,-,N/A,,Mostly Cloudy,130,2013-08-31 18:35:00
1:55 PM,80.2,65.3,60,29.87,10.0,East,9.2,-,N/A,,Overcast,100,2013-08-31 18:55:00
2:15 PM,81.1,65.1,58,29.86,10.0,ESE,8.1,-,N/A,,Overcast,120,2013-08-31 19:15:00
2:35 PM,80.6,64.9,59,29.85,10.0,ESE,5.8,-,N/A,,Mostly Cloudy,120,2013-08-31 19:35:00
2:55 PM,80.2,65.1,60,29.85,10.0,East,5.8,-,N/A,,Scattered Clouds,80,2013-08-31 19:55:00
3:15 PM,81.0,64.8,58,29.84,10.0,East,8.1,-,N/A,,Scattered Clouds,90,2013-08-31 20:15:00
3:35 PM,80.8,64.4,57,29.84,10.0,ESE,8.1,-,N/A,,Scattered Clouds,120,2013-08-31 20:35:00
3:55 PM,80.8,63.9,56,29.84,10.0,SE,5.8,-,N/A,,Clear,140,2013-08-31 20:55:00
4:15 PM,80.8,64.2,57,29.84,10.0,ESE,6.9,-,N/A,,Scattered Clouds,110,2013-08-31 21:15:00
4:35 PM,80.6,64.4,58,29.83,10.0,SE,5.8,-,N/A,,Scattered Clouds,130,2013-08-31 21:35:00
4:55 PM,80.8,64.4,57,29.83,10.0,East,5.8,-,N/A,,Scattered Clouds,100,2013-08-31 21:55:00
5:15 PM,80.1,63.7,57,29.83,10.0,SE,5.8,-,N/A,,Scattered Clouds,140,2013-08-31 22:15:00
5:35 PM,79.9,64.2,59,29.83,10.0,ESE,3.5,-,N/A,,Clear,120,2013-08-31 22:35:00
5:55 PM,79.3,64.4,60,29.83,10.0,NE,5.8,-,N/A,,Clear,40,2013-08-31 22:55:00
6:15 PM,78.4,64.4,62,29.82,10.0,ESE,4.6,-,N/A,,Clear,110,2013-08-31 23:15:00
6:35 PM,77.9,64.0,62,29.82,10.0,ESE,4.6,-,N/A,,Clear,120,2013-08-31 23:35:00
6:55 PM,77.0,63.7,63,29.81,10.0,East,3.5,-,N/A,,Clear,90,2013-08-31 23:55:00
7:15 PM,75.4,63.5,66,29.81,10.0,East,4.6,-,N/A,,Clear,100,2013-09-01 00:15:00
7:35 PM,73.0,63.9,73,29.82,10.0,Calm,Calm,-,N/A,,Clear,0,2013-09-01 00:35:00
7:55 PM,70.7,64.6,81,29.83,10.0,Calm,Calm,-,N/A,,Clear,0,2013-09-01 00:55:00
8:15 PM,69.4,63.7,82,29.85,10.0,Calm,Calm,-,N/A,,Clear,0,2013-09-01 01:15:00
8:35 PM,68.2,65.7,92,29.86,10.0,Calm,Calm,-,N/A,,Clear,0,2013-09-01 01:35:00
8:55 PM,67.5,65.3,93,29.87,10.0,Calm,Calm,-,N/A,,Clear,0,2013-09-01 01:55:00
9:15 PM,67.1,65.3,94,29.87,10.0,Calm,Calm,-,N/A,,Clear,0,2013-09-01 02:15:00
9:35 PM,66.2,64.6,94,29.88,10.0,Calm,Calm,-,N/A,,Clear,0,2013-09-01 02:35:00
9:55 PM,64.8,63.0,94,29.87,10.0,Calm,Calm,-,N/A,,Clear,0,2013-09-01 02:55:00
10:15 PM,65.3,63.9,95,29.86,10.0,Calm,Calm,-,N/A,,Clear,0,2013-09-01 03:15:00
10:35 PM,64.4,63.1,96,29.85,10.0,West,4.6,-,N/A,,Clear,280,2013-09-01 03:35:00
10:55 PM,63.9,62.4,95,29.85,7.0,Calm,Calm,-,N/A,,Clear,0,2013-09-01 03:55:00
11:15 PM,65.1,63.7,95,29.83,7.0,Calm,Calm,-,N/A,,Clear,0,2013-09-01 04:15:00
11:35 PM,64.0,62.8,96,29.83,5.0,Calm,Calm,-,N/A,,Clear,0,2013-09-01 04:35:00
11:55 PM,64.4,63.0,95,29.83,5.0,Calm,Calm,-,N/A,,Clear,0,2013-09-01 04:55:00